When you browse on this site, cookies collect data to enhance your experience and personalize the content and advertising you see.
Visit our Privacy Policy to learn more. By continuing to use the site, you agree to this use of cookies and data.
  • In Hungary
  • List of Countries
  • For 7 days
  • Water Temperature
  • Satellite Maps
  • Weather Map
  • News
  • Weather Widgets
  • user-avatar
    Login

    Hourly Weather Harare

    Today, 18 January, Friday

    Time Temperature Precipitation Wind Pressure Humidity
    00:00 +18°C° 0.1 mm 2 mps 636 mmHg 93%
    01:00 +18°C° 0.1 mm 2 mps 636 mmHg 94%
    02:00 +19°C° 0 mm 1 mps 636 mmHg 95%
    03:00 +18°C° 0 mm 1 mps 636 mmHg 96%
    04:00 +18°C° 0 mm 1 mps 635 mmHg 96%
    05:00 +18°C° 0 mm 1 mps 635 mmHg 97%
    06:00 +19°C° 0 mm 1 mps 636 mmHg 92%
    07:00 +20°C° 0 mm 2 mps 637 mmHg 88%
    08:00 +21°C° 0 mm 2 mps 638 mmHg 83%
    09:00 +24°C° 0 mm 2 mps 638 mmHg 75%
    10:00 +25°C° 0 mm 3 mps 638 mmHg 67%
    11:00 +27°C° 0 mm 3 mps 638 mmHg 59%
    12:00 +28°C° 0.1 mm 3 mps 638 mmHg 57%
    13:00 +28°C° 0.1 mm 3 mps 638 mmHg 55%
    14:00 +29°C° 0.1 mm 3 mps 637 mmHg 53%
    15:00 +29°C° 0.1 mm 3 mps 637 mmHg 54%
    16:00 +28°C° 0.1 mm 2 mps 636 mmHg 56%
    17:00 +28°C° 0.1 mm 2 mps 636 mmHg 57%
    18:00 +26°C° 0 mm 2 mps 636 mmHg 61%
    19:00 +25°C° 0 mm 1 mps 636 mmHg 66%
    20:00 +23°C° 0 mm 1 mps 636 mmHg 71%
    21:00 +23°C° 0 mm 1 mps 636 mmHg 73%
    22:00 +22°C° 0 mm 1 mps 636 mmHg 75%
    23:00 +22°C° 0 mm 1 mps 637 mmHg 77%

    Tomorrow, 19 January, Saturday

    Time Temperature Precipitation Wind Pressure Humidity
    00:00 +21°C° 0 mm 1 mps 636 mmHg 81%
    01:00 +20°C° 0 mm 1 mps 636 mmHg 84%
    02:00 +18°C° 0 mm 0 mps 635 mmHg 87%
    03:00 +17°C° 0 mm 0 mps 635 mmHg 87%
    04:00 +17°C° 0 mm 0 mps 635 mmHg 88%
    05:00 +17°C° 0 mm 0 mps 635 mmHg 88%
    06:00 +20°C° 0 mm 1 mps 636 mmHg 84%
    07:00 +22°C° 0 mm 1 mps 636 mmHg 79%
    08:00 +23°C° 0 mm 1 mps 637 mmHg 75%
    09:00 +25°C° 0 mm 2 mps 637 mmHg 65%
    10:00 +26°C° 0 mm 2 mps 638 mmHg 56%
    11:00 +28°C° 0 mm 3 mps 638 mmHg 47%
    12:00 +29°C° 0 mm 3 mps 638 mmHg 42%
    13:00 +30°C° 0 mm 3 mps 638 mmHg 37%
    14:00 +31°C° 0 mm 3 mps 638 mmHg 33%
    15:00 +30°C° 0 mm 3 mps 637 mmHg 36%
    16:00 +30°C° 0 mm 3 mps 637 mmHg 39%
    17:00 +29°C° 0 mm 3 mps 636 mmHg 41%
    18:00 +27°C° 0 mm 3 mps 636 mmHg 45%
    19:00 +26°C° 0 mm 3 mps 636 mmHg 48%
    20:00 +24°C° 0 mm 3 mps 636 mmHg 51%
    21:00 +24°C° 0 mm 3 mps 637 mmHg 54%
    22:00 +22°C° 0 mm 3 mps 637 mmHg 58%
    23:00 +21°C° 0 mm 4 mps 638 mmHg 62%

    Day after tomorrow, 20 January, Sunday

    Time Temperature Precipitation Wind Pressure Humidity
    00:00 +21°C° 0 mm 3 mps 637 mmHg 67%
    01:00 +20°C° 0 mm 3 mps 637 mmHg 71%
    02:00 +20°C° 0 mm 3 mps 637 mmHg 76%
    03:00 +20°C° 0.1 mm 4 mps 637 mmHg 79%
    04:00 +19°C° 0.1 mm 4 mps 637 mmHg 81%
    05:00 +19°C° 0.1 mm 5 mps 637 mmHg 83%
    06:00 +20°C° 0 mm 5 mps 638 mmHg 81%
    07:00 +20°C° 0 mm 6 mps 638 mmHg 78%
    08:00 +20°C° 0 mm 6 mps 639 mmHg 76%
    09:00 +21°C° 0 mm 6 mps 639 mmHg 70%
    10:00 +23°C° 0 mm 6 mps 640 mmHg 65%
    11:00 +24°C° 0 mm 6 mps 640 mmHg 60%
    12:00 +24°C° 0 mm 6 mps 640 mmHg 59%
    13:00 +24°C° 0 mm 7 mps 640 mmHg 58%
    14:00 +26°C° 0 mm 7 mps 639 mmHg 57%
    15:00 +24°C° 0 mm 7 mps 639 mmHg 59%
    16:00 +23°C° 0 mm 7 mps 638 mmHg 62%
    17:00 +22°C° 0 mm 7 mps 638 mmHg 64%
    18:00 +21°C° 0 mm 6 mps 638 mmHg 68%
    19:00 +19°C° 0 mm 6 mps 639 mmHg 72%
    20:00 +17°C° 0 mm 6 mps 639 mmHg 76%
    21:00 +17°C° 0 mm 6 mps 639 mmHg 77%
    22:00 +16°C° 0 mm 6 mps 639 mmHg 77%
    23:00 +16°C° 0 mm 5 mps 639 mmHg 78%

    21 January, Monday

    Time Temperature Precipitation Wind Pressure Humidity
    00:00 +16°C° 0 mm 5 mps 639 mmHg 79%
    01:00 +15°C° 0 mm 5 mps 639 mmHg 80%
    02:00 +15°C° 0 mm 4 mps 638 mmHg 81%
    03:00 +15°C° 0 mm 4 mps 638 mmHg 81%
    04:00 +15°C° 0 mm 4 mps 638 mmHg 82%
    05:00 +15°C° 0 mm 4 mps 638 mmHg 82%
    06:00 +15°C° 0 mm 5 mps 639 mmHg 78%
    07:00 +16°C° 0 mm 5 mps 639 mmHg 74%
    08:00 +17°C° 0 mm 6 mps 640 mmHg 70%
    09:00 +20°C° 0 mm 6 mps 640 mmHg 65%
    10:00 +21°C° 0 mm 5 mps 640 mmHg 59%
    11:00 +23°C° 0 mm 5 mps 640 mmHg 54%
    12:00 +23°C° 0 mm 5 mps 640 mmHg 52%
    13:00 +25°C° 0 mm 5 mps 639 mmHg 51%
    14:00 +25°C° 0 mm 5 mps 639 mmHg 49%
    15:00 +23°C° 0 mm 5 mps 638 mmHg 53%
    16:00 +23°C° 0 mm 5 mps 638 mmHg 57%
    17:00 +22°C° 0 mm 5 mps 637 mmHg 61%
    18:00 +20°C° 0 mm 4 mps 637 mmHg 66%
    19:00 +19°C° 0 mm 4 mps 637 mmHg 72%
    20:00 +17°C° 0 mm 4 mps 638 mmHg 77%
    21:00 +17°C° 0 mm 3 mps 638 mmHg 79%
    22:00 +16°C° 0 mm 3 mps 638 mmHg 81%
    23:00 +16°C° 0 mm 3 mps 638 mmHg 83%

    22 January, Tuesday

    Time Temperature Precipitation Wind Pressure Humidity
    00:00 +16°C° 0 mm 3 mps 637 mmHg 83%
    01:00 +16°C° 0 mm 3 mps 637 mmHg 83%
    02:00 +14°C° 0 mm 3 mps 636 mmHg 84%
    03:00 +14°C° 0 mm 3 mps 636 mmHg 85%
    04:00 +14°C° 0 mm 3 mps 636 mmHg 87%
    05:00 +14°C° 0 mm 3 mps 636 mmHg 88%
    06:00 +16°C° 0 mm 3 mps 637 mmHg 85%
    07:00 +17°C° 0 mm 4 mps 637 mmHg 81%
    08:00 +19°C° 0 mm 4 mps 638 mmHg 77%
    09:00 +21°C° 0 mm 4 mps 638 mmHg 72%
    10:00 +22°C° 0 mm 4 mps 638 mmHg 66%
    11:00 +25°C° 0 mm 4 mps 639 mmHg 61%
    12:00 +25°C° 0.2 mm 4 mps 638 mmHg 62%
    13:00 +25°C° 0.2 mm 4 mps 638 mmHg 63%
    14:00 +25°C° 0.2 mm 4 mps 637 mmHg 64%
    15:00 +23°C° 0.1 mm 5 mps 637 mmHg 67%
    16:00 +22°C° 0.1 mm 5 mps 636 mmHg 70%
    17:00 +21°C° 0.1 mm 5 mps 636 mmHg 73%
    18:00 +20°C° 0 mm 4 mps 636 mmHg 77%
    19:00 +19°C° 0 mm 4 mps 636 mmHg 81%
    20:00 +18°C° 0 mm 3 mps 636 mmHg 85%
    21:00 +18°C° 0.1 mm 3 mps 637 mmHg 86%
    22:00 +18°C° 0.1 mm 2 mps 637 mmHg 87%
    23:00 +18°C° 0.1 mm 2 mps 637 mmHg 88%

    23 January, Wednesday

    Time Temperature Precipitation Wind Pressure Humidity
    00:00 +18°C° 0.1 mm 2 mps 636 mmHg 89%
    01:00 +18°C° 0.1 mm 2 mps 636 mmHg 89%
    02:00 +18°C° 0.1 mm 2 mps 635 mmHg 90%
    03:00 +17°C° 0 mm 2 mps 635 mmHg 92%
    04:00 +17°C° 0 mm 2 mps 635 mmHg 94%
    05:00 +17°C° 0 mm 2 mps 635 mmHg 95%
    06:00 +18°C° 0 mm 2 mps 636 mmHg 90%
    07:00 +19°C° 0 mm 2 mps 637 mmHg 85%
    08:00 +20°C° 0 mm 2 mps 637 mmHg 80%
    09:00 +23°C° 0.4 mm 2 mps 637 mmHg 77%
    10:00 +24°C° 0.4 mm 1 mps 637 mmHg 74%
    11:00 +25°C° 0.4 mm 1 mps 637 mmHg 70%
    12:00 +25°C° 0.9 mm 1 mps 637 mmHg 70%
    13:00 +25°C° 0.9 mm 1 mps 636 mmHg 69%
    14:00 +26°C° 0.9 mm 1 mps 636 mmHg 68%
    15:00 +25°C° 1.3 mm 1 mps 636 mmHg 71%
    16:00 +25°C° 1.3 mm 1 mps 635 mmHg 74%
    17:00 +24°C° 1.3 mm 1 mps 635 mmHg 77%
    18:00 +23°C° 1.9 mm 1 mps 635 mmHg 81%
    19:00 +22°C° 1.9 mm 1 mps 635 mmHg 85%
    20:00 +21°C° 1.9 mm 1 mps 636 mmHg 89%
    21:00 +20°C° 1.9 mm 2 mps 636 mmHg 89%
    22:00 +20°C° 1.9 mm 2 mps 636 mmHg 90%
    23:00 +20°C° 1.9 mm 2 mps 636 mmHg 90%
    Show more